Regional Weather Roundup
Issued by NWS

Home | Current Version | Previous Version | Text Only | Print | Product List | Glossary On
Versions: 1 2 3 4 5 6 7 8 9 10 11 12 13 14 15 16 17 18 19 20 21 22 23 24 25 26 27 28 29 30 31 32 33 34 35 36 37 38 39 40 41 42 43 44 45 46 47 48 49 50
000
ASUS44 KOUN 271210
RWROK

WEATHER ROUNDUP FOR OKLAHOMA
NATIONAL WEATHER SERVICE NORMAN OK
700 AM CDT TUE SEP 27 2016

NOTE: "FAIR" INDICATES FEW OR NO CLOUDS BELOW 12,000 FEET WITH NO
      SIGNIFICANT WEATHER AND/OR OBSTRUCTIONS TO VISIBILITY.

OKZ001>007-009>012-014-015-017-271300-
NORTHWEST OKLAHOMA AND THE PANHANDLE

CITY           SKY/WX    TMP DP  RH WIND       PRES   REMARKS
GAGE           CLEAR     45  41  86 CALM      30.17S
6HR MIN TEMP:  44; 6HR MAX TEMP:  53;

GUYMON         CLEAR     54  38  54 W10       30.17F
ENID/WOODRING  CLEAR     54  48  82 W6        30.13S
$$

OKZ016-021>023-033>039-044-045-271300-
SOUTHWEST OKLAHOMA

CITY           SKY/WX    TMP DP  RH WIND       PRES   REMARKS
LAWTON/REGL    PTCLDY    49  48  97 CALM      30.16S
6HR MIN TEMP:  49; 6HR MAX TEMP:  55;

LAWTON/FT SILL CLEAR     50  46  84 N3        30.15S
FREDERICK      CLOUDY    56  49  77 NW8       30.14S
CLINTON        CLEAR     53  45  74 W9        30.19S
HOBART         CLEAR     51  49  92 NW6       30.18S
ALTUS AFB      CLOUDY    54  45  72 NW5       30.17S
$$

OKZ018>020-024>031-271300-
CENTRAL OKLAHOMA

CITY           SKY/WX    TMP DP  RH WIND       PRES   REMARKS
OKLAHOMA CITY  PTCLDY    50  47  89 S6        30.15R
6HR MIN TEMP:  50; 6HR MAX TEMP:  61;

OKC/WILEY POST CLEAR     50  46  86 SW3       30.15S
OKC/TINKER AFB CLEAR     55  41  58 S5        30.14R
STILLWATER     CLEAR     48  47  96 CALM      30.13F
GUTHRIE        CLEAR     49  47  93 S3        30.14F
$$

OKZ008-013-054>072-271300-
NORTHEAST OKLAHOMA

CITY           SKY/WX    TMP DP  RH WIND       PRES   REMARKS
TULSA          PTCLDY    50  48  93 CALM      30.12F
6HR MIN TEMP:  50; 6HR MAX TEMP:  57;

TULSA/JONES    CLEAR     49  46  90 CALM      30.14S
PONCA CITY     CLEAR     49  46  90 CALM      30.13S
BARTLESVILLE   CLEAR     44  43  96 CALM      30.13F
MUSKOGEE       CLOUDY    46  45  96 NW3       30.15R FOG
$$

OKZ032-040>043-046>053-073>077-271300-
SOUTH CENTRAL/SOUTHEAST OKLAHOMA

CITY           SKY/WX    TMP DP  RH WIND       PRES   REMARKS
ARDMORE/DWNTWN CLOUDY    52  46  82 CALM      30.15R
MCALESTER      PTCLDY    48  45  89 CALM      30.14R
$$




USA.gov is the U.S. government's official web portal to all federal, state and local government web resources and services.